{"data":{"norad_id":55670,"intl_designator":"2023-021AU","name":"STARLINK-5423","alt_names":[],"object_type":"PAYLOAD","status":"ACTIVE","operator":null,"country":"US","launch_date":"2023-02-17","launch_site_code":"AFWTR","launch_vehicle":null,"mission":null,"orbit_class":"UNKNOWN","rcs_meters":null,"size_class":null,"mass_kg":null,"dimensions":null,"purposes":["comms"],"wikipedia_slug":null,"has_3d_model":false,"image_url":null,"decayed_at":null,"tle_current":{"epoch":"2026-05-24T21:54:17.019936Z","epoch_age_seconds":89514,"freshness":"FRESH","line1":"1 55670U 23021AU  26144.91269699 -.00000203  00000+0 -92111-5 0  9994","line2":"2 55670  69.9990 332.2039 0002508 269.1923  90.8949 14.98329143180705","mean_motion":14.98329143,"eccentricity":0.0002508,"inclination_deg":69.999,"raan_deg":332.2039,"arg_perigee_deg":269.1923,"mean_anomaly_deg":90.8949,"bstar":-9.2111e-6,"rev_number":18070,"period_min":96.107054096057,"perigee_km":570.31543210577,"apogee_km":573.80165018921,"semimajor_km":6950.1955411475,"source":"CELESTRAK","updated_at":"2026-05-25T13:38:17.876067Z"}}}